sat.trackr.live / text

‹ back to catalog

STARLINK-32359

NORAD 61957 · 2024-209U

PAYLOAD ACTIVE UNKNOWN

§ Identity

Operator
Country
US
Launch date
2024-11-14
Launch site
AFWTR
Launch vehicle
Mass (kg)
RCS (m²)

Purposes: comms

External: N2YO · Heavens-Above · Gunter

§ Orbital elements

Epoch: 2026-09-21T02:51:50.810112Z

Period
93.85 min
Inclination
53.1610°
Eccentricity
0.0001470
Mean motion
15.34400079 rev/d
Perigee alt
461.7 km
Apogee alt
463.7 km
Semi-major
6,840.8 km
B*
4.4728e-4
RAAN
305.0066°
Arg perigee
83.3371°
Mean anomaly
276.7799°
Rev number
10,497

§ Raw data

STARLINK-323591 61957U 24209U   26264.11933808  .00014766  00000+0  44728-3 0  99992 61957  53.1610 305.0066 0001470  83.3371 276.7799 15.34400079104974

JSON: /api/v1/satellites/61957 · /tle

For live sub-satellite position, see the globe view (requires WebGL).

§ Visibility from observer

Set your observer location to see the next 7 days of passes ≥ 10°. The values pass through the URL so the page stays shareable.

No JS? Fill the form by hand. The geolocation button needs JavaScript.